Flag for Germany

Past Weather in Krefeld, North Rhine-Westphalia, Germany — Yesterday and Last 2 Weeks

Now
70 °F

Passing clouds.


Feels Like: 70 °F
Forecast: 64 / 54 °F
Wind: 14 mph from Southwest

Location: Monchengladbach Airport

Current Time: Jul 9, 2020 at 2:21:13 pm

Latest Report: Jul 9, 2020 at 1:50 pm


Visibility: N/A

Pressure: 29.92 "Hg

Humidity: 64%

Dew Point: 57 °F

Location of KrefeldLocation

Past Weather in Krefeld — Graph

°F

Krefeld Temperature Yesterday

Maximum temperature yesterday: 63 °F (at 6:20 pm)
Minimum temperature yesterday: 55 °F (at 1:50 am)
Average temperature yesterday: 58 °F

High & Low Weather Summary for the Past Weeks

 TemperatureHumidityPressure
High88 °F (Jun 26, 4:20 pm)100% (Jul 1, 7:50 am)30.18 "Hg (Jul 1, 7:50 am)
Low45 °F (Jul 7, 4:20 am)30% (Jun 24, 6:50 pm)29.71 "Hg (Jul 1, 3:50 pm)
Average66 °F71%29.94 "Hg
* Reported Jun 24 12:20 pm — Jul 9 12:50 pm, Krefeld. Weather by CustomWeather, © 2020

Note: Actual official high and low records may vary slightly from our data, if they occured in-between our weather recording intervals... More about our weather records

Krefeld Weather History for the Previous 24 Hours

Scroll right to see more
 ConditionsComfort  
Time TempWeatherWind HumidityBarometerVisibility
12:50 pm
Thu, Jul 9
70 °FScattered clouds.9 mph69%29.92 "HgN/A
12:20 pm70 °FPartly sunny.10 mph69%29.92 "HgN/A
11:50 am68 °FBroken clouds.9 mph78%29.92 "HgN/A
11:20 am66 °FBroken clouds.12 mph83%29.92 "HgN/A
10:50 am66 °FPartly sunny.8 mph83%29.92 "HgN/A
10:20 am66 °FLight rain. Mostly cloudy.7 mph83%29.92 "HgN/A
9:50 am64 °FPartly sunny.13 mph88%29.92 "HgN/A
9:20 am64 °FOvercast.10 mph88%29.92 "HgN/A
8:50 am64 °FPartly sunny.10 mph88%29.92 "HgN/A
8:20 am63 °FPartly sunny.9 mph94%29.92 "HgN/A
7:50 am63 °FPartly sunny.8 mph94%29.95 "Hg5 mi
7:20 am63 °FLight rain. Partly sunny.8 mph94%29.95 "HgN/A
6:50 am63 °FLight rain. Partly sunny.8 mph94%29.95 "Hg4 mi
6:20 am63 °FLow clouds.6 mph94%29.95 "HgN/A
5:50 am63 °FLow clouds.6 mph94%29.95 "Hg4 mi
5:20 am61 °FLow clouds.5 mph100%29.95 "HgN/A
4:50 am61 °FMostly cloudy.5 mph100%29.95 "HgN/A
4:20 am61 °FMostly cloudy.5 mph100%29.95 "Hg6 mi
3:50 am61 °FMostly cloudy.3 mph100%29.95 "HgN/A
3:20 am61 °FLow clouds.3 mph94%29.95 "HgN/A
2:50 am61 °FOvercast.2 mph94%29.98 "HgN/A
2:20 am59 °FMostly cloudy.2 mph100%29.98 "HgN/A
1:50 am59 °FLow clouds.2 mph100%29.98 "HgN/A
1:20 am59 °FPartly sunny.2 mph100%29.98 "HgN/A
12:50 am59 °FOvercast.2 mph100%29.98 "HgN/A
12:20 am61 °FOvercast.2 mph94%30.01 "HgN/A
11:50 pm
Wed, Jul 8
61 °FMostly cloudy.2 mph94%30.01 "HgN/A
11:20 pm61 °FOvercast.2 mph94%30.01 "HgN/A
10:50 pm61 °FOvercast.3 mph94%30.01 "HgN/A
10:20 pm61 °FMostly cloudy.3 mph94%30.01 "HgN/A
9:50 pm61 °FMostly cloudy.2 mph94%30.01 "HgN/A
9:20 pm61 °FMostly cloudy.3 mph94%29.98 "HgN/A
8:50 pm61 °FMostly cloudy.2 mph100%30.01 "Hg3 mi
8:20 pm63 °FPassing clouds.2 mph94%30.01 "Hg4 mi
7:50 pm63 °FLight rain. Overcast.3 mph88%30.01 "Hg3 mi
7:20 pm63 °FOvercast.3 mph88%30.01 "Hg5 mi
6:50 pm63 °FPassing clouds.2 mph88%30.01 "HgN/A
6:20 pm63 °FPassing clouds.6 mph88%30.01 "HgN/A
5:50 pm61 °FPassing clouds.5 mph94%30.01 "HgN/A
5:20 pm61 °FPartly cloudy.5 mph94%30.01 "HgN/A
4:50 pm61 °FMostly cloudy.5 mph94%30.01 "HgN/A
4:20 pm61 °FLight rain. Overcast.5 mph94%30.01 "HgN/A
3:50 pm59 °FLight rain. Fog.5 mph100%30.01 "Hg3 mi
3:20 pm61 °FOvercast.5 mph88%30.01 "HgN/A
2:50 pm59 °FOvercast.5 mph88%30.01 "HgN/A
2:20 pm59 °FOvercast.5 mph88%30.01 "HgN/A
Weather by CustomWeather, © 2020

See weather overview